Showing default

OPS 4467 B, 813

Orbit data source: Space-Track

OPS 4467 B, 813 is an American payload satellite in SSO that was launched on Thu, 18 Jun 1964 UTC via a THOR SLV-2 AGENA D launch vehicle from the Air Force Western Test Range (AFWTR). Payloads include a variety of satellites, spacecraft, and rockets equipped with specific instruments for various scientific and technological missions. These include communications satellites like Starlink; space stations such as the ISS; scientific satellites like the Hubble; Earth observation satellites from companies like Planet Labs, Umbra, and HawkEye 360; GPS; miniature CubeSats for education and research; and military/defense satellites.

Loading next visibility...
OPS 4467 B details
Identifier
813, 1964-031B
Orbit
SSO
Last TLE update11 hours ago
Origin
Flag of USNRO/SAFSP (US)
ManufacturerRCA/East Windsor
MissionDefense Weather
Bus & MotorP35, Unknown motor
Mass50 kg wet, 50 kg dry
Launch date (UTC)
1964-06-18 (61 years ago)
Launch vehicle
THOR SLV-2 AGENA D
Launch site
Air Force Western Test Range (AFWTR)
Object type
Payload
Rocket body
Debris
Shape & HBRCyl, 0.6 m
Radar Cross Section0.377 m², Medium (>0.1 m² and < 1m²)

Expand to show TLE details & history

TLE from 11 hours ago
0 OPS 4467 B
1   813U 64031B   25023.19055399  .00000229  00000-0  12421-3 0  9995
2   813  99.7845 113.4838 0005614 157.6492 202.4929 14.23528184142850
Epoch: 2025-01-23T04:34Z
Definitive object data (Epoch: 2025-01-23T04:34:23.864Z)
Latitude0.00002°
Longitude-77.88727°
Altitude820.059 km
Speed7.441 km/s
True Right ascension07h 33m 56s
True Declination0° 00' 00"
Sunlit
Object was in full shadow at TLE epoch
Visualization TLE readout
Latitude39.0591°
Longitude110.61321°
Altitude814.996 km
Speed7.451 km/s
Apparent Right ascension23h 50m 53s
Apparent Declination5° 16' 12"
Sunlit
Object is in daylight
Visualization observer readout
Local Sidereal Time16:33:28
Azimuth73.28° E
Elevation-11.198°
Doppler factor1
Orbital elements
Apogee altitude814.69 km
Perigee altitude806.618 km
Semi-major axis7,188.791 km
Eccentricity0.0005614
Inclination99.7845°
RAAN113.4838°
Arg. of periapsis157.6492°
True anomaly202.4683°
Mean anomaly202.4929°
Eccentric anomaly202.4806°
Mean motion3.5609 °/min
BSTAR0.00012421
Orbital period101.1 mins
Loading maneuver chart data...
Loading historical data...
Loading historical data...
Loading historical data...
Loading historical data...
Loading historical data...
Loading historical data...
Loading historical data...
Other satellites on launch #31 in the year 1964 (1964-06-18 UTC)

OPS 4467 B Visibility forecast

Observer location: undefined°, undefined

Span
Click to sort rows by Start time (UTC) header in descending order
Start Az.
Max El. time (UTC)
Max El. Az.
Max El.
End time (UTC)
End Az.
9 mins2025-01-23 18:39:05.534Z21.783° NNE2025-01-23 18:43:05.534Z77.718° E42.528°2025-01-23 18:48:05.534Z186.112° SSW
4 mins2025-01-23 20:21:05.534Z320.495° NNW2025-01-23 20:23:05.534Z294.315° NW15.3°2025-01-23 20:25:05.534Z270.182° WNW
4 mins2025-01-24 04:23:05.534Z79.097° E2025-01-24 04:24:05.534Z66.329° ENE15.311°2025-01-24 04:27:05.534Z29.098° NE
8 mins2025-01-24 06:00:05.534Z175.98° S2025-01-24 06:04:05.534Z279.359° WNW42.735°2025-01-24 06:08:05.534Z338.213° N
|